User: anonymous   Login
Location: Fontevrault
(47.1823°N, 0.0493°E)
Time: 21:59:02
(UTC+00:00)
Language:

RESURS O1 DEB - Orbit

View from above orbital plane
View from above orbital plane
View from above satellite
View from above satellite

Ground track
Ground track

The orbit data is extracted from the following two-line orbital elements,

1 47205U 94074CR  22027.41539015  .00009554  00000-0  11310-2 0  9994
2 47205  97.9029  79.8843 0002586  26.5466 333.5880 14.84791315 64851
Epoch (UTC): 27 January 2022 09:58:09
Eccentricity: 0.0002586
inclination: 97.9029°
perigee height: 612 km
apogee height: 616 km
right ascension of ascending node: 79.8843°
argument of perigee: 26.5466°
revolutions per day: 14.84791315
mean anomaly at epoch: 333.5880°
orbit number at epoch: 6485

The dashed part of the orbit path shows where the satellite is in the earth's shadow,  

DLR